GW4137 Weather Reports


Display with metric or nautical units.
time (UTC)temp
F
wind
direction
speed
MPH
gust
MPH
rain 1hr
in
rain 24hr
in
rain mn
in
humidity
%
barometer
mb
20260903163057 64 238 5.0 10.0 0.00 0.19 0.04 52 1007.8
20260903161600 62 192 5.0 10.0 0.00 0.19 0.04 57 1007.8
20260903160129 58 154 0.0 3.0 0.00 0.19 0.04 67 1007.9
20260903154611 57 155 2.0 5.0 0.00 0.19 0.04 72 1007.7
20260903153056 55 0 0.0 2.0 0.00 0.19 0.04 71 1007.9
20260903151616 53 0 0.0 5.0 0.00 0.19 0.04 75 1007.8
20260903150111 52 155 3.0 7.0 0.00 0.19 0.04 80 1007.9
20260903144610 52 0 0.0 0.0 0.00 0.19 0.04 79 1007.8
20260903143105 51 161 0.0 6.0 0.00 0.19 0.04 80 1007.6
20260903141613 51 161 4.0 6.0 0.00 0.19 0.04 81 1007.5
20260903140109 49 161 0.0 0.0 0.00 0.19 0.04 84 1007.3
20260903134600 49 161 3.0 6.0 0.00 0.19 0.04 82 1007.2
20260903133057 48 161 4.0 6.0 0.00 0.19 0.04 83 1007.1
20260903131602 47 161 5.0 6.0 0.00 0.19 0.04 84 1006.9
20260903130052 46 161 5.0 6.0 0.00 0.19 0.04 83 1006.7
20260903124605 46 161 3.0 6.0 0.00 0.19 0.04 83 1006.6
20260903123058 46 161 4.0 6.0 0.00 0.19 0.04 82 1006.4
20260903121553 47 0 0.0 6.0 0.01 0.19 0.04 80 1006.3
20260903120101 47 161 5.0 6.0 0.01 0.19 0.04 80 1006.3
20260903114603 48 0 0.0 0.0 0.01 0.19 0.04 77 1006.3
20260903113056 49 161 3.0 6.0 0.01 0.19 0.04 77 1006.8
20260903111552 49 161 1.0 6.0 0.00 0.18 0.03 77 1006.7
20260903110057 47 0 1.0 5.0 0.00 0.18 0.03 79 1006.7
20260903104558 49 0 0.0 5.0 0.00 0.18 0.03 77 1006.8
20260903103101 48 0 0.0 0.0 0.00 0.18 0.03 79 1006.6
20260903101606 48 161 3.0 10.0 0.00 0.18 0.03 80 1006.5
20260903100110 48 156 4.0 6.0 0.01 0.18 0.03 79 1006.1
20260903094607 48 156 4.0 6.0 0.01 0.18 0.03 80 1006.1
20260903093108 49 155 2.0 5.0 0.01 0.18 0.03 78 1006.3
20260903091556 49 0 0.0 2.0 0.01 0.18 0.03 79 1006.1
20260903084557 48 155 1.0 5.0 0.00 0.17 0.02 80 1006.2
20260903083107 48 0 0.0 0.0 0.00 0.17 0.02 82 1006.0
20260903081601 48 0 0.0 0.0 0.01 0.17 0.02 80 1006.1
20260903080105 49 155 3.0 8.0 0.01 0.17 0.02 80 1006.2
20260903074602 49 152 3.0 7.0 0.01 0.17 0.02 80 1006.3
20260903073106 49 151 7.0 11.0 0.01 0.17 0.02 81 1006.3
20260903071610 51 0 0.0 0.0 0.00 0.16 0.01 79 1006.1
20260903070059 53 0 0.0 0.0 0.01 0.16 0.01 74 1006.2
20260903064553 53 0 1.0 5.0 0.01 0.16 0.01 71 1005.7
20260903063113 53 210 1.0 4.0 0.01 0.16 0.01 72 1005.9
20260903061600 53 210 2.0 4.0 0.01 0.16 0.01 77 1006.2
20260903060110 53 0 3.0 5.0 0.01 0.15 0.00 76 1006.2
20260903054554 54 210 2.0 4.0 0.01 0.15 0.15 74 1006.0
20260903053056 54 210 3.0 7.0 0.01 0.15 0.15 73 1006.5
20260903051554 54 210 5.0 8.0 0.01 0.15 0.15 74 1006.5
20260903050118 55 209 8.0 16.0 0.01 0.14 0.14 74 1006.6
20260903044559 54 221 6.0 9.0 0.01 0.14 0.14 78 1007.0
20260903043058 54 236 6.0 10.0 0.01 0.14 0.14 77 1007.3
20260903041554 53 249 5.0 8.0 0.01 0.14 0.14 76 1007.2
20260903040058 51 277 4.0 8.0 0.01 0.13 0.13 81 1007.1
20260903034559 51 0 0.0 3.0 0.01 0.13 0.13 78 1007.1
20260903033055 52 281 0.0 6.0 0.01 0.13 0.13 77 1007.1
20260903031554 53 0 0.0 0.0 0.02 0.13 0.13 73 1007.1
20260903030056 54 0 0.0 8.0 0.01 0.12 0.12 72 1006.6
20260903024552 54 287 5.0 9.0 0.01 0.12 0.12 74 1006.2
20260903023102 54 288 4.0 8.0 0.02 0.12 0.12 76 1006.5
20260903021556 55 288 0.0 5.0 0.01 0.11 0.11 74 1006.8
20260903020059 56 288 3.0 9.0 0.02 0.11 0.11 71 1007.2
20260903014559 58 291 7.0 17.0 0.02 0.11 0.11 67 1006.3
20260903013101 58 254 13.0 20.0 0.02 0.10 0.10 69 1006.8
20260903011603 59 234 10.0 16.0 0.02 0.10 0.10 74 1006.8
20260903010059 60 240 5.0 11.0 0.02 0.09 0.09 72 1006.5
20260903004554 60 312 3.0 10.0 0.02 0.09 0.09 71 1005.6
20260903003053 60 325 3.0 9.0 0.02 0.08 0.08 67 1005.7
20260903001558 60 327 0.0 10.0 0.03 0.08 0.08 66 1005.4
20260903000054 60 328 5.0 10.0 0.04 0.07 0.07 66 1005.6
20260902234553 61 267 4.0 17.0 0.06 0.07 0.07 64 1006.6
20260902233102 60 241 14.0 24.0 0.06 0.06 0.06 66 1007.4
20260902231605 58 210 9.0 23.0 0.05 0.05 0.05 75 1006.7
20260902230055 57 228 21.0 32.0 0.03 0.03 0.03 77 1006.5
20260902224603 58 221 31.0 46.0 0.01 0.01 0.01 75 1005.6
20260902223057 78 106 9.0 20.0 0.00 0.00 0.00 28 1002.3
20260902221554 80 157 6.0 9.0 0.00 0.00 0.00 29 1002.1
20260902220104 81 157 4.0 9.0 0.00 0.00 0.00 29 1002.6
20260902214602 81 157 8.0 12.0 0.00 0.00 0.00 28 1002.8
20260902213105 82 149 1.0 10.0 0.00 0.00 0.00 28 1002.9
20260902211555 83 186 5.0 13.0 0.00 0.00 0.00 27 1003.0
20260902210056 82 195 6.0 13.0 0.00 0.00 0.00 29 1003.4
20260902204554 82 143 7.0 13.0 0.00 0.00 0.00 29 1003.9
20260902203055 80 207 8.0 17.0 0.00 0.00 0.00 30 1004.3
20260902201558 80 206 9.0 17.0 0.00 0.00 0.00 30 1004.5
20260902200107 79 206 9.0 14.0 0.00 0.00 0.00 31 1004.5
20260902194558 79 180 11.0 17.0 0.00 0.00 0.00 30 1004.7
20260902193058 79 189 9.0 14.0 0.00 0.00 0.00 33 1004.9
20260902191556 78 175 5.0 12.0 0.00 0.00 0.00 34 1004.9
20260902190055 76 200 8.0 13.0 0.00 0.00 0.00 35 1005.3
20260902184601 76 192 6.0 12.0 0.00 0.00 0.00 36 1005.5
20260902183100 76 199 9.0 15.0 0.00 0.00 0.00 36 1005.7
20260902181552 76 214 8.0 17.0 0.00 0.00 0.00 38 1005.8
20260902180130 74 199 10.0 18.0 0.00 0.00 0.00 41 1006.0
20260902174557 74 222 10.0 15.0 0.00 0.00 0.00 43 1006.1
20260902173054 72 192 10.0 16.0 0.00 0.00 0.00 45 1006.4
20260902171556 71 179 8.0 11.0 0.00 0.00 0.00 47 1006.3
20260902170056 70 207 7.0 13.0 0.00 0.00 0.00 48 1006.2
20260902164554 70 201 9.0 14.0 0.00 0.00 0.00 48 1006.2